TimeMDT,TemperatureF,Dew PointF,Humidity,Sea Level PressureIn,VisibilityMPH,Wind Direction,Wind SpeedMPH,Gust SpeedMPH,PrecipitationIn,Events,Conditions,WindDirDegrees,DateUTC
12:53 AM,44.1,37.0,76,29.93,10.0,SW,15.0,-,N/A,,Clear,230,2012-10-30 06:53:00
1:53 AM,44.1,36.0,73,29.96,10.0,WSW,12.7,-,N/A,,Clear,240,2012-10-30 07:53:00
2:53 AM,39.0,34.0,82,29.98,10.0,NW,3.5,-,N/A,,Clear,320,2012-10-30 08:53:00
3:53 AM,39.0,33.1,79,29.98,10.0,West,8.1,-,N/A,,Clear,280,2012-10-30 09:53:00
4:53 AM,37.9,33.1,83,29.97,10.0,West,6.9,-,N/A,,Partly Cloudy,280,2012-10-30 10:53:00
5:53 AM,43.0,35.1,74,29.97,10.0,SW,12.7,-,N/A,,Clear,220,2012-10-30 11:53:00
6:53 AM,39.0,33.1,79,29.98,10.0,WSW,5.8,-,N/A,,Clear,250,2012-10-30 12:53:00
7:53 AM,42.1,34.0,73,29.98,10.0,SSW,8.1,-,N/A,,Clear,210,2012-10-30 13:53:00
8:53 AM,46.9,36.0,66,29.98,10.0,SW,15.0,-,N/A,,Clear,220,2012-10-30 14:53:00
9:53 AM,48.9,37.0,64,29.97,10.0,SW,13.8,-,N/A,,Clear,220,2012-10-30 15:53:00
10:53 AM,52.0,37.0,57,29.97,10.0,SW,13.8,-,N/A,,Clear,220,2012-10-30 16:53:00
11:53 AM,57.0,37.9,49,29.91,10.0,SSW,19.6,-,N/A,,Clear,210,2012-10-30 17:53:00
12:53 PM,60.1,37.9,44,29.91,10.0,SW,19.6,25.3,N/A,,Clear,230,2012-10-30 18:53:00
1:53 PM,63.0,37.9,40,29.88,10.0,SW,15.0,24.2,N/A,,Clear,220,2012-10-30 19:53:00
2:53 PM,66.0,35.1,32,29.86,10.0,SW,19.6,27.6,N/A,,Clear,230,2012-10-30 20:53:00
3:53 PM,64.0,35.1,34,29.86,10.0,WSW,11.5,-,N/A,,Clear,240,2012-10-30 21:53:00
4:53 PM,61.0,37.0,41,29.86,10.0,SW,8.1,-,N/A,,Clear,220,2012-10-30 22:53:00
5:53 PM,57.9,36.0,44,29.85,10.0,SSW,6.9,-,N/A,,Clear,210,2012-10-30 23:53:00
6:53 PM,59.0,36.0,42,29.87,10.0,SW,11.5,-,N/A,,Clear,220,2012-10-31 00:53:00
7:53 PM,54.0,37.0,53,29.87,10.0,SW,8.1,-,N/A,,Overcast,230,2012-10-31 01:53:00
8:53 PM,55.9,37.9,51,29.88,10.0,WNW,10.4,-,N/A,,Overcast,300,2012-10-31 02:53:00
9:53 PM,41.0,35.1,79,29.94,10.0,WNW,12.7,24.2,N/A,,Overcast,300,2012-10-31 03:53:00
10:53 PM,37.9,33.1,83,30.00,10.0,WNW,9.2,-,N/A,,Overcast,300,2012-10-31 04:53:00
11:09 PM,37.4,32.0,81,29.97,10.0,WNW,12.7,-,N/A,,Overcast,290,2012-10-31 05:09:00
11:53 PM,36.0,32.0,86,30.02,10.0,WNW,9.2,-,N/A,,Overcast,300,2012-10-31 05:53:00